Regional Weather Roundup
Issued by NWS Mt. Holly, NJ

Current Version | Previous Version | Text Only | Print | Product List | Glossary On
Versions: 1 2 3 4 5 6 7 8 9 10 11 12 13 14 15 16 17 18 19 20 21 22 23 24 25 26 27 28 29 30 31 32 33 34 35 36 37 38 39 40 41 42 43 44 45 46 47 48 49 50
000
ASUS41 KPHI 211710
RWRPHI

REGIONAL WEATHER ROUNDUP
NATIONAL WEATHER SERVICE MOUNT HOLLY NJ
100 PM EDT THU AUG 21 2014

NOTE:  "FAIR" INDICATES FEW OR NO CLOUDS BELOW 12,000 FEET WITH NO
SIGNIFICANT WEATHER AND/OR OBSTRUCTIONS TO VISIBILITY.

 * = STATION DOES NOT REPORT PRECIPITATION (E.G. RAIN, SNOW, ETC.)
        OR FOG.

NJZ015>026-211800-
SOUTHERN NEW JERSEY

CITY           SKY/WX    TMP DP  RH WIND       PRES   REMARKS
POMONA         MOSUNNY   79  63  57 SE8       30.05S
RIO GRANDE*    CLOUDY    81  66  61 SE6       30.06S
MILLVILLE      PTSUNNY   81  66  60 SE5       30.04F
WRIGHTSTOWN    PTSUNNY   83  62  48 S8        30.01F
MOUNT HOLLY    PTSUNNY   82  60  47 CALM      30.04S
TRENTON        MOSUNNY   82  57  42 S8        30.03F

$$
NJZ001>014-211800-
NORTHERN NEW JERSEY

CITY           SKY/WX    TMP DP  RH WIND       PRES   REMARKS
SUSSEX         CLOUDY    80  65  59 VRB3      30.04S
ANDOVER*         N/A     74  66  76 VRB3      30.06R
MORRISTOWN     PTSUNNY   82  59  44 W7        30.05S
NEWARK         PTSUNNY   77  65  66 SE7       30.04F
TETERBORO      CLOUDY    79  59  50 S8        30.03F
CALDWELL       CLOUDY    79  58  48 VRB5      30.05S
SOMERVILLE     PTSUNNY   81  59  47 CALM      30.02F
ALLAIRE*       PTSUNNY   77  63  61 SE9       30.06S
TOMS RIVER*    MOSUNNY   79  63  57 SE8       30.05S

$$
PAZ043-044-047-054-055-060>062-066>071-211800-
EASTERN PENNSYLVANIA

CITY           SKY/WX    TMP DP  RH WIND       PRES   REMARKS
PHILADELPHIA   PTSUNNY   81  67  62 SW5       30.04F
NORTH PHILA    CLOUDY    83  60  45 VRB5      30.05S
BLUE BELL      CLOUDY    81  68  65 W6        30.04S
DOYLESTOWN     CLOUDY    79  62  56 S6        30.04S
QUAKERTOWN*    PTSUNNY   79  68  69 MISG      30.06S
POTTSTOWN      PTSUNNY   77  68  73 SW7       30.05F
LANCASTER      MOSUNNY   79  69  71 CALM      30.03F
COATESVILLE    CLOUDY    75  72  88 CALM      30.06F
READING        MOSUNNY   82  69  64 S5        30.03F
ALLENTOWN      PTSUNNY   79  66  64 SW6       30.04F
MOUNT POCONO   CLOUDY    69  65  86 SE7       30.09S
HAZLETON       PTSUNNY   77  66  69 SW3       30.10S
WILKES BARRE   MOSUNNY   81  65  58 W7G18     30.02F

$$
DEZALL-MDZ008-012-015-019-020-211800-
DELAWARE AND EASTERN MARYLAND

CITY           SKY/WX    TMP DP  RH WIND       PRES   REMARKS
WILMINGTON     CLOUDY    80  70  71 CALM      30.05F
DOVER          PTSUNNY   80  74  80 E9        30.03S
GEORGETOWN     CLOUDY    82  71  69 SE9G17    30.04F
EASTON         PTSUNNY   86  72  62 SW5       30.06F HX  92
PATUXENT       CLOUDY    82  73  74 SE8       30.02F
OCEAN CITY     MOSUNNY   79  72  79 SE9       30.05S
WALLOPS ISLAND LGT RAIN  82  74  76 S8        30.04S
CAMBRIDGE      MOSUNNY   86  70  58 CALM      30.02F HX  90
SALISBURY      RAIN      83  73  72 E6        30.03S

$$
PAZ001-021-NYZ056-072-MDZ011-DCZ001-211800-
OTHER NEARBY LOCATIONS

CITY           SKY/WX    TMP DP  RH WIND       PRES   REMARKS
HARRISBURG     MOSUNNY   82  72  71 CALM      30.02F
STATE COLLEGE  CLOUDY    79  70  73 SW8       30.02F
WILLIAMSPORT   MOSUNNY   79  68  69 CALM      30.00F
BINGHAMTON     PTSUNNY   76  67  73 S9        30.01F
NEW YORK CITY  MOSUNNY   81  63  54 VRB5      30.07S
BALTIMORE      PTSUNNY   84  70  62 CALM      30.02F
WASHINGTON DC  PTSUNNY   86  70  58 S7        30.03F HX  90

$$


USA.gov is the U.S. government's official web portal to all federal, state and local government web resources and services.